Find Kuiper-00039

NORAD ID: 64500 Int'l Des: 2025-134 Owner: KUIP Country: US Constellation: kuiper operational
LEOCIRCULAR

Live Position

Loading 3D Globe...

About Kuiper-00039

Description loading...

Upcoming Passes

Passes for default location (London). Set your location on the main map for personalized predictions.

Altitude History

Loading altitude history...

Two-Line Element Set

1 64500U 25134A 26106.85219174 .00002158 00000-0 31211-3 0 9999
2 64500 51.9025 64.3416 0000961 74.8054 285.3014 14.79918592 45723
Epoch: Apr 16, 2026 • Age: 12 hours

Current Status

Altitude 646.4 km
Velocity 7.53 km/s
Sub-Earth Point -47.66°S, 38.42°W
Launch Date Jun 23, 2025
Age 0.8 years
Type internet

Technical Details

Classification Payload
Mass 490.00 kg
Dry Mass 490.00 kg
Total Mass 490.00 kg
Length 1.80 m
Diameter 0.70 m
Span 5.00 m
Shape Box + 2 pan
Manufacturer KUIP
Bus Type Kuiper
Phase Status In Orbit
Owner/State KUIP/US

Most Searched